Time,TemperatureF,DewpointF,PressureIn,WindDirection,WindDirectionDegrees,WindSpeedMPH,WindSpeedGustMPH,Humidity,HourlyPrecipIn,Conditions,Clouds,dailyrainin,SoftwareType,DateUTC
2013-03-25 00:00:00,65.7,13.5,29.89,SSE,154,4.0,6.0,13,0.00,,---,0.00,VWS V14.00,2013-03-25 07:00:00,
2013-03-25 00:05:00,65.6,15.1,29.89,SSE,154,3.0,6.0,14,0.00,,---,0.00,VWS V14.00,2013-03-25 07:05:00,
2013-03-25 00:10:00,65.4,15.0,29.89,SSE,154,4.0,6.0,14,0.00,,---,0.00,VWS V14.00,2013-03-25 07:10:00,
2013-03-25 00:15:00,65.4,15.0,29.89,SSE,154,6.0,8.0,14,0.00,,---,0.00,VWS V14.00,2013-03-25 07:15:00,
2013-03-25 00:20:00,65.6,15.1,29.89,ESE,110,10.0,13.0,14,0.00,,---,0.00,VWS V14.00,2013-03-25 07:20:00,
2013-03-25 00:25:00,65.7,13.5,29.89,East,92,9.0,14.0,13,0.00,,---,0.00,VWS V14.00,2013-03-25 07:25:00,
2013-03-25 00:30:00,65.7,13.5,29.89,East,91,6.0,14.0,13,0.00,,---,0.00,VWS V14.00,2013-03-25 07:30:00,
2013-03-25 00:35:00,65.7,15.2,29.89,East,90,8.0,13.0,14,0.00,,---,0.00,VWS V14.00,2013-03-25 07:35:00,
2013-03-25 00:40:00,65.8,15.3,29.89,East,90,7.0,10.0,14,0.00,,---,0.00,VWS V14.00,2013-03-25 07:40:00,
2013-03-25 00:45:00,65.8,15.3,29.89,East,90,6.0,9.0,14,0.00,,---,0.00,VWS V14.00,2013-03-25 07:45:00,
2013-03-25 00:50:00,65.7,15.2,29.89,East,90,6.0,9.0,14,0.00,,---,0.00,VWS V14.00,2013-03-25 07:50:00,
2013-03-25 00:55:00,65.6,15.1,29.89,East,90,2.0,9.0,14,0.00,,---,0.00,VWS V14.00,2013-03-25 07:55:00,
2013-03-25 01:00:00,65.4,15.0,29.89,East,90,2.0,9.0,14,0.00,,---,0.00,VWS V14.00,2013-03-25 08:00:00,
2013-03-25 01:05:00,65.4,15.0,29.89,East,90,6.0,7.0,14,0.00,,---,0.00,VWS V14.00,2013-03-25 08:05:00,
2013-03-25 01:10:00,65.9,15.4,29.89,East,90,2.0,7.0,14,0.00,,---,0.00,VWS V14.00,2013-03-25 08:10:00,
2013-03-25 01:15:00,66.1,15.6,29.89,East,90,3.0,7.0,14,0.00,,---,0.00,VWS V14.00,2013-03-25 08:15:00,
2013-03-25 01:20:00,66.0,15.5,29.89,East,90,5.0,7.0,14,0.00,,---,0.00,VWS V14.00,2013-03-25 08:20:00,
2013-03-25 01:25:00,66.0,15.5,29.89,East,90,0.0,7.0,14,0.00,,---,0.00,VWS V14.00,2013-03-25 08:25:00,
2013-03-25 01:30:00,65.6,15.1,29.89,East,90,3.0,7.0,14,0.00,,---,0.00,VWS V14.00,2013-03-25 08:30:00,
2013-03-25 01:35:00,65.1,14.8,29.89,East,90,7.0,7.0,14,0.00,,---,0.00,VWS V14.00,2013-03-25 08:35:00,
2013-03-25 01:40:00,64.7,14.4,29.89,East,90,5.0,7.0,14,0.00,,---,0.00,VWS V14.00,2013-03-25 08:40:00,
2013-03-25 01:45:00,64.6,14.4,29.88,East,90,5.0,7.0,14,0.00,,---,0.00,VWS V14.00,2013-03-25 08:45:00,
2013-03-25 01:50:00,64.6,14.4,29.88,East,90,5.0,8.0,14,0.00,,---,0.00,VWS V14.00,2013-03-25 08:50:00,
2013-03-25 01:55:00,64.7,14.4,29.88,East,90,6.0,9.0,14,0.00,,---,0.00,VWS V14.00,2013-03-25 08:55:00,
2013-03-25 02:00:00,64.9,14.6,29.88,East,90,5.0,9.0,14,0.00,,---,0.00,VWS V14.00,2013-03-25 09:00:00,
2013-03-25 02:05:00,64.6,14.4,29.89,East,90,2.0,8.0,14,0.00,,---,0.00,VWS V14.00,2013-03-25 09:05:00,
2013-03-25 02:10:00,64.5,14.3,29.89,East,90,2.0,9.0,14,0.00,,---,0.00,VWS V14.00,2013-03-25 09:10:00,
2013-03-25 02:15:00,64.4,14.2,29.89,East,90,5.0,8.0,14,0.00,,---,0.00,VWS V14.00,2013-03-25 09:15:00,
2013-03-25 02:20:00,64.3,14.1,29.89,East,90,5.0,8.0,14,0.00,,---,0.00,VWS V14.00,2013-03-25 09:20:00,
2013-03-25 02:25:00,64.0,13.9,29.89,East,90,2.0,9.0,14,0.00,,---,0.00,VWS V14.00,2013-03-25 09:25:00,
2013-03-25 02:30:00,64.0,13.9,29.88,East,90,2.0,8.0,14,0.00,,---,0.00,VWS V14.00,2013-03-25 09:30:00,
2013-03-25 02:35:00,64.1,14.0,29.88,East,90,3.0,7.0,14,0.00,,---,0.00,VWS V14.00,2013-03-25 09:35:00,
2013-03-25 02:40:00,63.8,15.3,29.88,East,90,6.0,7.0,15,0.00,,---,0.00,VWS V14.00,2013-03-25 09:40:00,
2013-03-25 02:45:00,63.7,15.2,29.88,East,90,7.0,8.0,15,0.00,,---,0.00,VWS V14.00,2013-03-25 09:45:00,
2013-03-25 02:50:00,63.8,13.7,29.88,East,90,5.0,9.0,14,0.00,,---,0.00,VWS V14.00,2013-03-25 09:50:00,
2013-03-25 02:55:00,64.0,13.9,29.88,East,90,6.0,9.0,14,0.00,,---,0.00,VWS V14.00,2013-03-25 09:55:00,
2013-03-25 03:00:00,64.3,14.1,29.88,East,90,5.0,9.0,14,0.00,,---,0.00,VWS V14.00,2013-03-25 10:00:00,
2013-03-25 03:05:00,64.4,14.2,29.88,East,90,3.0,10.0,14,0.00,,---,0.00,VWS V14.00,2013-03-25 10:05:00,
2013-03-25 03:10:00,64.4,14.2,29.88,East,90,3.0,7.0,14,0.00,,---,0.00,VWS V14.00,2013-03-25 10:10:00,
2013-03-25 03:15:00,64.5,14.3,29.87,East,90,7.0,9.0,14,0.00,,---,0.00,VWS V14.00,2013-03-25 10:15:00,
2013-03-25 03:20:00,64.2,14.0,29.87,East,90,5.0,9.0,14,0.00,,---,0.00,VWS V14.00,2013-03-25 10:20:00,
2013-03-25 03:25:00,64.2,14.0,29.87,East,90,5.0,10.0,14,0.00,,---,0.00,VWS V14.00,2013-03-25 10:25:00,
2013-03-25 03:30:00,64.2,14.0,29.87,East,90,6.0,7.0,14,0.00,,---,0.00,VWS V14.00,2013-03-25 10:30:00,
2013-03-25 03:35:00,64.2,14.0,29.87,East,90,7.0,9.0,14,0.00,,---,0.00,VWS V14.00,2013-03-25 10:35:00,
2013-03-25 03:40:00,64.2,14.0,29.87,East,90,7.0,10.0,14,0.00,,---,0.00,VWS V14.00,2013-03-25 10:40:00,
2013-03-25 03:45:00,64.0,13.9,29.87,East,90,5.0,7.0,14,0.00,,---,0.00,VWS V14.00,2013-03-25 10:45:00,
2013-03-25 03:50:00,63.9,13.8,29.87,East,90,0.0,9.0,14,0.00,,---,0.00,VWS V14.00,2013-03-25 10:50:00,
2013-03-25 03:55:00,63.5,13.5,29.87,East,90,0.0,0.0,14,0.00,,---,0.00,VWS V14.00,2013-03-25 10:55:00,
2013-03-25 04:00:00,63.3,13.3,29.87,East,90,0.0,0.0,14,0.00,,---,0.00,VWS V14.00,2013-03-25 11:00:00,
2013-03-25 04:05:00,63.4,13.4,29.87,East,90,0.0,0.0,14,0.00,,---,0.00,VWS V14.00,2013-03-25 11:05:00,
2013-03-25 04:10:00,63.2,13.2,29.87,East,90,2.0,5.0,14,0.00,,---,0.00,VWS V14.00,2013-03-25 11:10:00,
2013-03-25 04:15:00,62.8,14.5,29.87,East,90,7.0,10.0,15,0.00,,---,0.00,VWS V14.00,2013-03-25 11:15:00,
2013-03-25 04:20:00,63.1,13.2,29.87,East,90,5.0,9.0,14,0.00,,---,0.00,VWS V14.00,2013-03-25 11:20:00,
2013-03-25 04:25:00,63.1,13.2,29.87,East,90,11.0,14.0,14,0.00,,---,0.00,VWS V14.00,2013-03-25 11:25:00,
2013-03-25 04:31:00,63.6,13.6,29.87,East,89,9.0,18.0,14,0.00,,---,0.00,VWS V14.00,2013-03-25 11:31:00,
2013-03-25 04:36:00,63.6,13.6,29.87,East,89,7.0,11.0,14,0.00,,---,0.00,VWS V14.00,2013-03-25 11:36:00,
2013-03-25 04:41:00,63.7,13.6,29.87,East,82,16.0,16.0,14,0.00,,---,0.00,VWS V14.00,2013-03-25 11:41:00,
2013-03-25 04:46:00,63.9,13.8,29.87,ENE,67,7.0,15.0,14,0.00,,---,0.00,VWS V14.00,2013-03-25 11:46:00,
2013-03-25 04:51:00,63.9,13.8,29.88,ENE,59,8.0,15.0,14,0.00,,---,0.00,VWS V14.00,2013-03-25 11:51:00,
2013-03-25 04:56:00,63.8,13.7,29.88,ENE,59,8.0,13.0,14,0.00,,---,0.00,VWS V14.00,2013-03-25 11:56:00,
2013-03-25 05:01:00,63.5,13.5,29.88,ENE,59,9.0,13.0,14,0.00,,---,0.00,VWS V14.00,2013-03-25 12:01:00,
2013-03-25 05:06:00,63.1,13.2,29.88,ENE,58,5.0,13.0,14,0.00,,---,0.00,VWS V14.00,2013-03-25 12:06:00,
2013-03-25 05:11:00,62.6,12.8,29.88,ENE,58,4.0,9.0,14,0.00,,---,0.00,VWS V14.00,2013-03-25 12:11:00,
2013-03-25 05:16:00,62.3,12.5,29.88,ENE,58,2.0,9.0,14,0.00,,---,0.00,VWS V14.00,2013-03-25 12:16:00,
2013-03-25 05:21:00,62.7,12.8,29.88,ENE,58,9.0,13.0,14,0.00,,---,0.00,VWS V14.00,2013-03-25 12:21:00,
2013-03-25 05:26:00,63.3,13.3,29.88,ENE,58,4.0,13.0,14,0.00,,---,0.00,VWS V14.00,2013-03-25 12:26:00,
2013-03-25 05:31:00,63.3,13.3,29.88,ENE,58,9.0,13.0,14,0.00,,---,0.00,VWS V14.00,2013-03-25 12:31:00,
2013-03-25 05:36:00,63.0,13.1,29.88,ENE,58,9.0,13.0,14,0.00,,---,0.00,VWS V14.00,2013-03-25 12:36:00,
2013-03-25 05:41:00,63.1,13.2,29.88,ENE,58,5.0,12.0,14,0.00,,---,0.00,VWS V14.00,2013-03-25 12:41:00,
2013-03-25 05:46:00,63.3,13.3,29.88,ENE,58,8.0,12.0,14,0.00,,---,0.00,VWS V14.00,2013-03-25 12:46:00,
2013-03-25 05:51:00,63.6,11.9,29.88,ENE,58,9.0,12.0,13,0.00,,---,0.00,VWS V14.00,2013-03-25 12:51:00,
2013-03-25 05:56:00,63.6,11.9,29.88,ENE,58,10.0,12.0,13,0.00,,---,0.00,VWS V14.00,2013-03-25 12:56:00,
2013-03-25 06:01:00,63.5,11.8,29.88,ENE,58,11.0,15.0,13,0.00,,---,0.00,VWS V14.00,2013-03-25 13:01:00,
2013-03-25 06:06:00,63.5,11.8,29.88,ENE,58,12.0,15.0,13,0.00,,---,0.00,VWS V14.00,2013-03-25 13:06:00,
2013-03-25 06:11:00,63.6,11.9,29.88,ENE,58,3.0,15.0,13,0.00,,---,0.00,VWS V14.00,2013-03-25 13:11:00,
2013-03-25 06:16:00,63.9,12.1,29.88,ENE,58,9.0,13.0,13,0.00,,---,0.00,VWS V14.00,2013-03-25 13:16:00,
2013-03-25 06:21:00,64.0,12.2,29.88,ENE,58,7.0,7.0,13,0.00,,---,0.00,VWS V14.00,2013-03-25 13:21:00,
2013-03-25 06:27:00,63.4,13.4,29.89,ENE,58,5.0,12.0,14,0.00,,---,0.00,VWS V14.00,2013-03-25 13:27:00,
2013-03-25 06:36:00,64.0,13.9,29.89,NE,50,8.0,16.0,14,0.00,,---,0.00,VWS V14.00,2013-03-25 13:36:00,
2013-03-25 06:42:00,64.1,14.0,29.89,NE,50,8.0,9.0,14,0.00,,---,0.00,VWS V14.00,2013-03-25 13:42:00,
2013-03-25 06:47:00,64.1,14.0,29.89,NE,50,5.0,8.0,14,0.00,,---,0.00,VWS V14.00,2013-03-25 13:47:00,
2013-03-25 06:52:00,63.9,13.8,29.90,NE,50,3.0,6.0,14,0.00,,---,0.00,VWS V14.00,2013-03-25 13:52:00,
2013-03-25 06:57:00,64.1,14.0,29.90,NE,50,2.0,6.0,14,0.00,,---,0.00,VWS V14.00,2013-03-25 13:57:00,
2013-03-25 07:02:00,63.9,13.8,29.90,NE,50,5.0,7.0,14,0.00,,---,0.00,VWS V14.00,2013-03-25 14:02:00,
2013-03-25 07:07:00,63.8,13.7,29.90,NE,50,3.0,6.0,14,0.00,,---,0.00,VWS V14.00,2013-03-25 14:07:00,
2013-03-25 07:12:00,64.1,14.0,29.90,NE,50,6.0,8.0,14,0.00,,---,0.00,VWS V14.00,2013-03-25 14:12:00,
2013-03-25 07:17:00,64.5,14.3,29.90,NE,50,7.0,8.0,14,0.00,,---,0.00,VWS V14.00,2013-03-25 14:17:00,
2013-03-25 07:22:00,64.9,14.6,29.90,NE,50,4.0,7.0,14,0.00,,---,0.00,VWS V14.00,2013-03-25 14:22:00,
2013-03-25 07:27:00,65.4,15.0,29.90,NE,50,7.0,8.0,14,0.00,,---,0.00,VWS V14.00,2013-03-25 14:27:00,
2013-03-25 07:32:00,65.9,15.4,29.90,NE,50,6.0,10.0,14,0.00,,---,0.00,VWS V14.00,2013-03-25 14:32:00,
2013-03-25 07:37:00,66.3,15.7,29.91,NE,50,6.0,7.0,14,0.00,,---,0.00,VWS V14.00,2013-03-25 14:37:00,
2013-03-25 07:42:00,66.6,14.2,29.91,NE,50,5.0,10.0,13,0.00,,---,0.00,VWS V14.00,2013-03-25 14:42:00,
2013-03-25 07:47:00,67.1,14.6,29.91,NE,50,4.0,10.0,13,0.00,,---,0.00,VWS V14.00,2013-03-25 14:47:00,
2013-03-25 07:52:00,67.5,15.0,29.91,NE,50,8.0,10.0,13,0.00,,---,0.00,VWS V14.00,2013-03-25 14:52:00,
2013-03-25 07:57:00,68.0,15.4,29.91,NE,50,6.0,8.0,13,0.00,,---,0.00,VWS V14.00,2013-03-25 14:57:00,
2013-03-25 08:02:00,68.6,15.8,29.91,NE,50,4.0,6.0,13,0.00,,---,0.00,VWS V14.00,2013-03-25 15:02:00,
2013-03-25 08:07:00,69.2,16.3,29.92,NE,50,3.0,4.0,13,0.00,,---,0.00,VWS V14.00,2013-03-25 15:07:00,
2013-03-25 08:12:00,69.9,15.0,29.92,NE,50,0.0,0.0,12,0.00,,---,0.00,VWS V14.00,2013-03-25 15:12:00,
2013-03-25 08:17:00,70.6,15.6,29.92,NE,50,0.0,0.0,12,0.00,,---,0.00,VWS V14.00,2013-03-25 15:17:00,
2013-03-25 08:23:00,71.2,16.0,29.92,NE,50,0.0,0.0,12,0.00,,---,0.00,VWS V14.00,2013-03-25 15:23:00,
2013-03-25 08:28:00,71.5,16.3,29.92,NE,50,0.0,0.0,12,0.00,,---,0.00,VWS V14.00,2013-03-25 15:28:00,
2013-03-25 08:33:00,71.1,17.8,29.92,NE,50,0.0,0.0,13,0.00,,---,0.00,VWS V14.00,2013-03-25 15:33:00,
2013-03-25 08:38:00,71.0,19.4,29.92,NE,50,0.0,0.0,14,0.00,,---,0.00,VWS V14.00,2013-03-25 15:38:00,
2013-03-25 08:46:00,72.0,16.6,29.92,NE,50,0.0,0.0,12,0.00,,---,0.00,VWS V14.00,2013-03-25 15:46:00,
2013-03-25 08:53:00,72.6,19.0,29.92,NE,50,0.0,3.0,13,0.00,,---,0.00,VWS V14.00,2013-03-25 15:53:00,
2013-03-25 08:58:00,72.4,18.8,29.92,NE,50,0.0,0.0,13,0.00,,---,0.00,VWS V14.00,2013-03-25 15:58:00,
2013-03-25 09:03:00,72.4,18.8,29.92,NE,50,0.0,0.0,13,0.00,,---,0.00,VWS V14.00,2013-03-25 16:03:00,
2013-03-25 09:08:00,73.0,19.3,29.92,NE,50,0.0,0.0,13,0.00,,---,0.00,VWS V14.00,2013-03-25 16:08:00,
2013-03-25 09:13:00,73.3,17.7,29.92,NE,50,0.0,5.0,12,0.00,,---,0.00,VWS V14.00,2013-03-25 16:13:00,
2013-03-25 09:18:00,73.3,15.7,29.92,NE,50,2.0,6.0,11,0.00,,---,0.00,VWS V14.00,2013-03-25 16:18:00,
2013-03-25 09:23:00,73.5,15.8,29.92,NE,50,4.0,8.0,11,0.00,,---,0.00,VWS V14.00,2013-03-25 16:23:00,
2013-03-25 09:28:00,73.5,15.8,29.92,NE,50,0.0,8.0,11,0.00,,---,0.00,VWS V14.00,2013-03-25 16:28:00,
2013-03-25 09:33:00,73.6,15.9,29.92,NE,50,3.0,8.0,11,0.00,,---,0.00,VWS V14.00,2013-03-25 16:33:00,
2013-03-25 09:38:00,73.8,16.0,29.92,NE,50,0.0,6.0,11,0.00,,---,0.00,VWS V14.00,2013-03-25 16:38:00,
2013-03-25 09:44:00,74.1,16.3,29.92,NE,50,4.0,9.0,11,0.00,,---,0.00,VWS V14.00,2013-03-25 16:44:00,
2013-03-25 09:51:00,74.6,14.5,29.92,NE,50,0.0,1.0,10,0.00,,---,0.00,VWS V14.00,2013-03-25 16:51:00,
2013-03-25 09:56:00,75.2,17.1,29.92,NE,50,3.0,6.0,11,0.00,,---,0.00,VWS V14.00,2013-03-25 16:56:00,
2013-03-25 10:01:00,75.2,17.1,29.92,NE,50,0.0,11.0,11,0.00,,---,0.00,VWS V14.00,2013-03-25 17:01:00,
2013-03-25 10:06:00,75.5,15.2,29.92,NE,50,0.0,1.0,10,0.00,,---,0.00,VWS V14.00,2013-03-25 17:06:00,
2013-03-25 10:11:00,75.9,15.5,29.92,NE,50,0.0,10.0,10,0.00,,---,0.00,VWS V14.00,2013-03-25 17:11:00,
2013-03-25 10:16:00,76.3,15.8,29.93,NE,50,0.0,8.0,10,0.00,,---,0.00,VWS V14.00,2013-03-25 17:16:00,
2013-03-25 10:21:00,76.5,15.9,29.93,NE,50,8.0,9.0,10,0.00,,---,0.00,VWS V14.00,2013-03-25 17:21:00,
2013-03-25 10:29:00,76.7,16.1,29.93,NE,50,3.0,7.0,10,0.00,,---,0.00,VWS V14.00,2013-03-25 17:29:00,
2013-03-25 10:34:00,76.9,16.2,29.93,NE,50,6.0,12.0,10,0.00,,---,0.00,VWS V14.00,2013-03-25 17:34:00,
2013-03-25 10:39:00,76.7,16.1,29.93,NE,50,4.0,15.0,10,0.00,,---,0.00,VWS V14.00,2013-03-25 17:39:00,
2013-03-25 10:44:00,76.3,15.8,29.92,NE,50,8.0,14.0,10,0.00,,---,0.00,VWS V14.00,2013-03-25 17:44:00,
2013-03-25 10:49:00,76.7,18.3,29.92,NE,50,7.0,14.0,11,0.00,,---,0.00,VWS V14.00,2013-03-25 17:49:00,
2013-03-25 10:54:00,77.0,16.3,29.92,ENE,67,0.0,13.0,10,0.00,,---,0.00,VWS V14.00,2013-03-25 17:54:00,
2013-03-25 10:59:00,77.0,18.5,29.93,ENE,67,7.0,9.0,11,0.00,,---,0.00,VWS V14.00,2013-03-25 17:59:00,
2013-03-25 11:04:00,77.7,16.8,29.92,ENE,74,14.0,14.0,10,0.00,,---,0.00,VWS V14.00,2013-03-25 18:04:00,
2013-03-25 11:09:00,77.6,16.8,29.92,ENE,76,4.0,12.0,10,0.00,,---,0.00,VWS V14.00,2013-03-25 18:09:00,
2013-03-25 11:14:00,77.6,16.8,29.92,East,89,10.0,17.0,10,0.00,,---,0.00,VWS V14.00,2013-03-25 18:14:00,
2013-03-25 11:19:00,77.6,16.8,29.92,East,91,7.0,13.0,10,0.00,,---,0.00,VWS V14.00,2013-03-25 18:19:00,
2013-03-25 11:24:00,77.8,16.9,29.92,East,98,0.0,17.0,10,0.00,,---,0.00,VWS V14.00,2013-03-25 18:24:00,
2013-03-25 11:29:00,78.2,14.8,29.92,ESE,102,7.0,17.0,9,0.00,,---,0.00,VWS V14.00,2013-03-25 18:29:00,
2013-03-25 11:34:00,78.0,17.1,29.92,ESE,102,7.0,14.0,10,0.00,,---,0.00,VWS V14.00,2013-03-25 18:34:00,
2013-03-25 11:39:00,78.0,17.1,29.92,ESE,102,13.0,15.0,10,0.00,,---,0.00,VWS V14.00,2013-03-25 18:39:00,
2013-03-25 11:44:00,78.2,14.8,29.92,ESE,111,7.0,13.0,9,0.00,,---,0.00,VWS V14.00,2013-03-25 18:44:00,
2013-03-25 11:49:00,78.6,17.5,29.91,ESE,121,9.0,15.0,10,0.00,,---,0.00,VWS V14.00,2013-03-25 18:49:00,
2013-03-25 11:54:00,78.8,17.7,29.91,ESE,121,7.0,13.0,10,0.00,,---,0.00,VWS V14.00,2013-03-25 18:54:00,
2013-03-25 11:59:00,79.1,17.9,29.91,SE,130,18.0,18.0,10,0.00,,---,0.00,VWS V14.00,2013-03-25 18:59:00,
2013-03-25 12:04:00,79.3,18.1,29.91,SE,130,12.0,16.0,10,0.00,,---,0.00,VWS V14.00,2013-03-25 19:04:00,
2013-03-25 12:09:00,79.6,18.3,29.91,SE,138,7.0,22.0,10,0.00,,---,0.00,VWS V14.00,2013-03-25 19:09:00,
2013-03-25 12:14:00,79.7,18.4,29.91,SSE,150,6.0,24.0,10,0.00,,---,0.00,VWS V14.00,2013-03-25 19:14:00,
2013-03-25 12:19:00,79.9,16.1,29.90,SE,140,10.0,22.0,9,0.00,,---,0.00,VWS V14.00,2013-03-25 19:19:00,
2013-03-25 12:24:00,79.6,18.3,29.90,SE,140,4.0,16.0,10,0.00,,---,0.00,VWS V14.00,2013-03-25 19:24:00,
2013-03-25 12:29:00,79.4,18.1,29.90,SSE,157,19.0,27.0,10,0.00,,---,0.00,VWS V14.00,2013-03-25 19:29:00,
2013-03-25 12:34:00,79.5,18.2,29.90,SSE,159,28.0,29.0,10,0.00,,---,0.00,VWS V14.00,2013-03-25 19:34:00,
2013-03-25 12:39:00,79.8,18.4,29.90,SSE,151,12.0,19.0,10,0.00,,---,0.00,VWS V14.00,2013-03-25 19:39:00,
2013-03-25 12:44:00,80.2,18.8,29.89,SSE,159,4.0,32.0,10,0.00,,---,0.00,VWS V14.00,2013-03-25 19:44:00,
2013-03-25 12:49:00,80.0,18.6,29.89,SE,144,18.0,30.0,10,0.00,,---,0.00,VWS V14.00,2013-03-25 19:49:00,
2013-03-25 12:54:00,80.0,20.8,29.89,SE,144,8.0,19.0,11,0.00,,---,0.00,VWS V14.00,2013-03-25 19:54:00,
2013-03-25 12:59:00,80.3,18.8,29.89,SE,137,22.0,22.0,10,0.00,,---,0.00,VWS V14.00,2013-03-25 19:59:00,
2013-03-25 13:04:00,79.7,20.6,29.89,SSE,150,19.0,28.0,11,0.00,,---,0.00,VWS V14.00,2013-03-25 20:04:00,
2013-03-25 13:09:00,80.2,21.0,29.88,SSE,156,8.0,26.0,11,0.00,,---,0.00,VWS V14.00,2013-03-25 20:09:00,
2013-03-25 13:14:00,80.0,20.8,29.88,SSE,157,8.0,22.0,11,0.00,,---,0.00,VWS V14.00,2013-03-25 20:14:00,
2013-03-25 13:19:00,80.5,21.2,29.88,SE,139,10.0,25.0,11,0.00,,---,0.00,VWS V14.00,2013-03-25 20:19:00,
2013-03-25 13:24:00,80.2,18.8,29.88,SE,136,21.0,31.0,10,0.00,,---,0.00,VWS V14.00,2013-03-25 20:24:00,
2013-03-25 13:29:00,79.9,20.8,29.88,SE,141,14.0,19.0,11,0.00,,---,0.00,VWS V14.00,2013-03-25 20:29:00,
2013-03-25 13:35:00,80.3,18.8,29.87,SE,134,11.0,21.0,10,0.00,,---,0.00,VWS V14.00,2013-03-25 20:35:00,
2013-03-25 13:40:00,80.1,20.9,29.87,SE,127,18.0,28.0,11,0.00,,---,0.00,VWS V14.00,2013-03-25 20:40:00,
2013-03-25 13:45:00,80.2,21.0,29.87,ESE,123,18.0,26.0,11,0.00,,---,0.00,VWS V14.00,2013-03-25 20:45:00,
2013-03-25 13:50:00,79.6,20.5,29.87,ESE,116,18.0,21.0,11,0.00,,---,0.00,VWS V14.00,2013-03-25 20:50:00,
2013-03-25 13:55:00,80.0,20.8,29.87,SE,132,10.0,20.0,11,0.00,,---,0.00,VWS V14.00,2013-03-25 20:55:00,
2013-03-25 14:00:00,80.4,23.2,29.87,SSE,155,8.0,30.0,12,0.00,,---,0.00,VWS V14.00,2013-03-25 21:00:00,
2013-03-25 14:05:00,80.7,23.4,29.86,SSE,150,20.0,24.0,12,0.00,,---,0.00,VWS V14.00,2013-03-25 21:05:00,
2013-03-25 14:10:00,81.1,23.7,29.86,SSE,155,16.0,24.0,12,0.00,,---,0.00,VWS V14.00,2013-03-25 21:10:00,
2013-03-25 14:15:00,81.3,21.8,29.86,SE,145,9.0,20.0,11,0.00,,---,0.00,VWS V14.00,2013-03-25 21:15:00,
2013-03-25 14:20:00,81.2,21.8,29.86,SSE,152,4.0,24.0,11,0.00,,---,0.00,VWS V14.00,2013-03-25 21:20:00,
2013-03-25 14:25:00,81.1,23.7,29.85,SSE,165,13.0,26.0,12,0.00,,---,0.00,VWS V14.00,2013-03-25 21:25:00,
2013-03-25 14:30:00,80.9,23.6,29.85,SSE,159,19.0,27.0,12,0.00,,---,0.00,VWS V14.00,2013-03-25 21:30:00,
2013-03-25 14:35:00,80.6,23.4,29.85,SSE,161,9.0,21.0,12,0.00,,---,0.00,VWS V14.00,2013-03-25 21:35:00,
2013-03-25 14:40:00,80.8,21.4,29.85,SSE,163,18.0,31.0,11,0.00,,---,0.00,VWS V14.00,2013-03-25 21:40:00,
2013-03-25 14:45:00,80.9,21.5,29.84,SE,138,14.0,24.0,11,0.00,,---,0.00,VWS V14.00,2013-03-25 21:45:00,
2013-03-25 14:50:00,80.8,21.4,29.84,SSE,160,6.0,25.0,11,0.00,,---,0.00,VWS V14.00,2013-03-25 21:50:00,
2013-03-25 14:55:00,81.0,21.6,29.84,SE,133,19.0,30.0,11,0.00,,---,0.00,VWS V14.00,2013-03-25 21:55:00,
2013-03-25 15:00:00,80.5,21.2,29.84,SSE,157,11.0,26.0,11,0.00,,---,0.00,VWS V14.00,2013-03-25 22:00:00,
2013-03-25 15:05:00,80.8,21.4,29.84,SE,144,8.0,20.0,11,0.00,,---,0.00,VWS V14.00,2013-03-25 22:05:00,
2013-03-25 15:10:00,80.5,21.2,29.83,SSE,159,22.0,25.0,11,0.00,,---,0.00,VWS V14.00,2013-03-25 22:10:00,
2013-03-25 15:15:00,80.6,19.0,29.83,SE,136,9.0,28.0,10,0.00,,---,0.00,VWS V14.00,2013-03-25 22:15:00,
2013-03-25 15:20:00,80.7,19.1,29.83,SE,133,24.0,28.0,10,0.00,,---,0.00,VWS V14.00,2013-03-25 22:20:00,
2013-03-25 15:25:00,80.9,19.3,29.83,ESE,121,17.0,27.0,10,0.00,,---,0.00,VWS V14.00,2013-03-25 22:25:00,
2013-03-25 15:30:00,80.9,19.3,29.82,SSE,159,18.0,25.0,10,0.00,,---,0.00,VWS V14.00,2013-03-25 22:30:00,
2013-03-25 15:35:00,81.0,19.4,29.82,SSE,154,10.0,26.0,10,0.00,,---,0.00,VWS V14.00,2013-03-25 22:35:00,
2013-03-25 15:40:00,81.6,19.8,29.82,SSE,164,14.0,20.0,10,0.00,,---,0.00,VWS V14.00,2013-03-25 22:40:00,
2013-03-25 15:45:00,82.1,20.2,29.82,SSE,165,4.0,16.0,10,0.00,,---,0.00,VWS V14.00,2013-03-25 22:45:00,
2013-03-25 15:50:00,81.8,17.5,29.82,SE,137,18.0,29.0,9,0.00,,---,0.00,VWS V14.00,2013-03-25 22:50:00,
2013-03-25 15:55:00,81.4,19.7,29.82,SSE,150,14.0,20.0,10,0.00,,---,0.00,VWS V14.00,2013-03-25 22:55:00,
2013-03-25 16:00:00,81.3,17.1,29.82,SE,138,16.0,22.0,9,0.00,,---,0.00,VWS V14.00,2013-03-25 23:00:00,
2013-03-25 16:05:00,81.3,19.6,29.81,SSE,164,12.0,30.0,10,0.00,,---,0.00,VWS V14.00,2013-03-25 23:05:00,
2013-03-25 16:10:00,81.2,19.5,29.81,SSE,160,4.0,30.0,10,0.00,,---,0.00,VWS V14.00,2013-03-25 23:10:00,
2013-03-25 16:15:00,81.2,19.5,29.81,SSE,153,18.0,31.0,10,0.00,,---,0.00,VWS V14.00,2013-03-25 23:15:00,
2013-03-25 16:20:00,81.1,19.4,29.81,SSE,160,11.0,24.0,10,0.00,,---,0.00,VWS V14.00,2013-03-25 23:20:00,
2013-03-25 16:25:00,81.2,17.1,29.81,SE,128,15.0,24.0,9,0.00,,---,0.00,VWS V14.00,2013-03-25 23:25:00,
2013-03-25 16:30:00,81.4,19.7,29.81,SE,139,15.0,23.0,10,0.00,,---,0.00,VWS V14.00,2013-03-25 23:30:00,
2013-03-25 16:35:00,81.4,17.2,29.81,SE,136,12.0,23.0,9,0.00,,---,0.00,VWS V14.00,2013-03-25 23:35:00,
2013-03-25 16:40:00,81.3,17.1,29.81,SSE,148,12.0,20.0,9,0.00,,---,0.00,VWS V14.00,2013-03-25 23:40:00,
2013-03-25 16:45:00,80.9,16.8,29.81,SE,144,19.0,26.0,9,0.00,,---,0.00,VWS V14.00,2013-03-25 23:45:00,
2013-03-25 16:50:00,80.6,19.0,29.81,SSE,148,17.0,19.0,10,0.00,,---,0.00,VWS V14.00,2013-03-25 23:50:00,
2013-03-25 16:55:00,80.4,18.9,29.80,SE,144,12.0,20.0,10,0.00,,---,0.00,VWS V14.00,2013-03-25 23:55:00,
2013-03-25 17:00:00,80.5,19.0,29.80,SE,138,14.0,19.0,10,0.00,,---,0.00,VWS V14.00,2013-03-26 00:00:00,
2013-03-25 17:06:00,80.6,19.0,29.80,SSE,150,11.0,23.0,10,0.00,,---,0.00,VWS V14.00,2013-03-26 00:06:00,
2013-03-25 17:11:00,80.4,18.9,29.80,SSE,158,6.0,26.0,10,0.00,,---,0.00,VWS V14.00,2013-03-26 00:11:00,
2013-03-25 17:16:00,80.1,18.7,29.81,SSE,161,11.0,22.0,10,0.00,,---,0.00,VWS V14.00,2013-03-26 00:16:00,
2013-03-25 17:21:00,79.6,18.3,29.80,SSE,163,7.0,21.0,10,0.00,,---,0.00,VWS V14.00,2013-03-26 00:21:00,
2013-03-25 17:26:00,79.4,18.1,29.80,SSE,162,16.0,18.0,10,0.00,,---,0.00,VWS V14.00,2013-03-26 00:26:00,
2013-03-25 17:31:00,79.2,18.0,29.80,SSE,161,4.0,21.0,10,0.00,,---,0.00,VWS V14.00,2013-03-26 00:31:00,
2013-03-25 17:36:00,79.2,18.0,29.80,SSE,159,13.0,19.0,10,0.00,,---,0.00,VWS V14.00,2013-03-26 00:36:00,
2013-03-25 17:41:00,79.1,20.1,29.80,SSE,157,6.0,18.0,11,0.00,,---,0.00,VWS V14.00,2013-03-26 00:41:00,
2013-03-25 17:46:00,79.1,17.9,29.80,SSE,157,8.0,16.0,10,0.00,,---,0.00,VWS V14.00,2013-03-26 00:46:00,
2013-03-25 17:51:00,78.8,17.7,29.80,SSE,152,11.0,14.0,10,0.00,,---,0.00,VWS V14.00,2013-03-26 00:51:00,
2013-03-25 17:56:00,78.8,17.7,29.81,SSE,151,12.0,13.0,10,0.00,,---,0.00,VWS V14.00,2013-03-26 00:56:00,
2013-03-25 18:01:00,78.7,17.6,29.81,SSE,152,6.0,8.0,10,0.00,,---,0.00,VWS V14.00,2013-03-26 01:01:00,
2013-03-25 18:06:00,79.0,17.8,29.81,SSE,153,7.0,8.0,10,0.00,,---,0.00,VWS V14.00,2013-03-26 01:06:00,
2013-03-25 18:11:00,78.8,17.7,29.81,SSE,159,13.0,17.0,10,0.00,,---,0.00,VWS V14.00,2013-03-26 01:11:00,
2013-03-25 18:16:00,78.6,17.5,29.81,SSE,159,12.0,12.0,10,0.00,,---,0.00,VWS V14.00,2013-03-26 01:16:00,
2013-03-25 18:21:00,78.4,17.4,29.81,SSE,160,15.0,18.0,10,0.00,,---,0.00,VWS V14.00,2013-03-26 01:21:00,
2013-03-25 18:26:00,78.4,14.9,29.81,SSE,161,13.0,15.0,9,0.00,,---,0.00,VWS V14.00,2013-03-26 01:26:00,
2013-03-25 18:31:00,78.3,14.9,29.81,SSE,157,10.0,12.0,9,0.00,,---,0.00,VWS V14.00,2013-03-26 01:31:00,
2013-03-25 18:36:00,78.1,17.1,29.81,SSE,157,6.0,8.0,10,0.00,,---,0.00,VWS V14.00,2013-03-26 01:36:00,
2013-03-25 18:41:00,77.9,17.0,29.81,SSE,158,5.0,11.0,10,0.00,,---,0.00,VWS V14.00,2013-03-26 01:41:00,
2013-03-25 18:46:00,77.6,16.8,29.81,SSE,157,8.0,10.0,10,0.00,,---,0.00,VWS V14.00,2013-03-26 01:46:00,
2013-03-25 18:51:00,77.4,18.8,29.81,SSE,157,7.0,8.0,11,0.00,,---,0.00,VWS V14.00,2013-03-26 01:51:00,
2013-03-25 18:57:00,77.0,18.5,29.81,SSE,157,9.0,9.0,11,0.00,,---,0.00,VWS V14.00,2013-03-26 01:57:00,
2013-03-25 19:02:00,76.7,18.3,29.81,SSE,157,4.0,9.0,11,0.00,,---,0.00,VWS V14.00,2013-03-26 02:02:00,
2013-03-25 19:07:00,76.4,20.1,29.81,SSE,157,2.0,4.0,12,0.00,,---,0.00,VWS V14.00,2013-03-26 02:07:00,
2013-03-25 19:12:00,76.1,19.9,29.81,SSE,157,0.0,2.0,12,0.00,,---,0.00,VWS V14.00,2013-03-26 02:12:00,
2013-03-25 19:17:00,75.7,19.5,29.82,SSE,157,0.0,2.0,12,0.00,,---,0.00,VWS V14.00,2013-03-26 02:17:00,
2013-03-25 19:22:00,75.3,21.1,29.81,SSE,157,1.0,2.0,13,0.00,,---,0.00,VWS V14.00,2013-03-26 02:22:00,
2013-03-25 19:27:00,75.0,20.9,29.82,SSE,157,1.0,2.0,13,0.00,,---,0.00,VWS V14.00,2013-03-26 02:27:00,
2013-03-25 19:32:00,74.7,20.6,29.82,SSE,157,0.0,0.0,13,0.00,,---,0.00,VWS V14.00,2013-03-26 02:32:00,
2013-03-25 19:37:00,74.4,22.1,29.82,SSE,157,0.0,0.0,14,0.00,,---,0.00,VWS V14.00,2013-03-26 02:37:00,
2013-03-25 19:42:00,74.0,20.1,29.82,SSE,157,0.0,0.0,13,0.00,,---,0.00,VWS V14.00,2013-03-26 02:42:00,
2013-03-25 19:47:00,73.7,21.6,29.82,SSE,157,0.0,0.0,14,0.00,,---,0.00,VWS V14.00,2013-03-26 02:47:00,
2013-03-25 19:52:00,73.3,21.3,29.82,SSE,157,0.0,0.0,14,0.00,,---,0.00,VWS V14.00,2013-03-26 02:52:00,
2013-03-25 19:57:00,73.3,19.5,29.82,SSE,157,0.0,0.0,13,0.00,,---,0.00,VWS V14.00,2013-03-26 02:57:00,
2013-03-25 20:06:00,73.4,19.6,29.82,SSE,157,0.0,0.0,13,0.00,,---,0.00,VWS V14.00,2013-03-26 03:06:00,
2013-03-25 20:12:00,73.4,19.6,29.82,SSE,157,0.0,0.0,13,0.00,,---,0.00,VWS V14.00,2013-03-26 03:12:00,
2013-03-25 20:17:00,73.3,17.7,29.82,SSE,157,0.0,0.0,12,0.00,,---,0.00,VWS V14.00,2013-03-26 03:17:00,
2013-03-25 20:22:00,73.1,17.5,29.82,SSE,157,0.0,0.0,12,0.00,,---,0.00,VWS V14.00,2013-03-26 03:22:00,
2013-03-25 20:27:00,73.1,17.5,29.82,SSE,157,0.0,0.0,12,0.00,,---,0.00,VWS V14.00,2013-03-26 03:27:00,
2013-03-25 20:32:00,73.2,17.6,29.83,SSE,157,0.0,0.0,12,0.00,,---,0.00,VWS V14.00,2013-03-26 03:32:00,
2013-03-25 20:37:00,73.4,17.7,29.83,SSE,157,0.0,0.0,12,0.00,,---,0.00,VWS V14.00,2013-03-26 03:37:00,
2013-03-25 20:42:00,73.4,17.7,29.83,SSE,157,0.0,0.0,12,0.00,,---,0.00,VWS V14.00,2013-03-26 03:42:00,
2013-03-25 20:47:00,73.2,17.6,29.83,SSE,157,0.0,0.0,12,0.00,,---,0.00,VWS V14.00,2013-03-26 03:47:00,
2013-03-25 20:52:00,73.1,17.5,29.83,SSE,157,0.0,0.0,12,0.00,,---,0.00,VWS V14.00,2013-03-26 03:52:00,
2013-03-25 20:57:00,73.2,17.6,29.83,SSE,157,0.0,0.0,12,0.00,,---,0.00,VWS V14.00,2013-03-26 03:57:00,
2013-03-25 21:01:00,73.4,17.7,29.83,SSE,157,0.0,0.0,12,0.00,,---,0.00,VWS V14.00,2013-03-26 04:01:00,
2013-03-25 21:06:00,73.1,17.5,29.83,SSE,157,4.0,4.0,12,0.00,,---,0.00,VWS V14.00,2013-03-26 04:06:00,
2013-03-25 21:07:00,72.8,17.3,29.83,SSE,157,3.0,4.0,12,0.00,,---,0.00,VWS V14.00,2013-03-26 04:07:00,
2013-03-25 21:12:00,72.1,18.6,29.83,SSE,157,0.0,6.0,13,0.00,,---,0.00,VWS V14.00,2013-03-26 04:12:00,
2013-03-25 21:17:00,71.7,18.3,29.84,SSE,157,2.0,4.0,13,0.00,,---,0.00,VWS V14.00,2013-03-26 04:17:00,
2013-03-25 21:22:00,71.7,18.3,29.84,SSE,157,4.0,4.0,13,0.00,,---,0.00,VWS V14.00,2013-03-26 04:22:00,
2013-03-25 21:26:00,71.7,18.3,29.84,SSE,157,3.0,5.0,13,0.00,,---,0.00,VWS V14.00,2013-03-26 04:26:00,
2013-03-25 21:31:00,71.6,18.2,29.84,SSE,157,0.0,5.0,13,0.00,,---,0.00,VWS V14.00,2013-03-26 04:31:00,
2013-03-25 21:37:00,71.6,18.2,29.84,SSE,157,1.0,3.0,13,0.00,,---,0.00,VWS V14.00,2013-03-26 04:37:00,
2013-03-25 21:43:00,71.5,18.1,29.84,SSE,157,0.0,4.0,13,0.00,,---,0.00,VWS V14.00,2013-03-26 04:43:00,
2013-03-25 21:48:00,71.6,18.2,29.85,SSE,157,2.0,4.0,13,0.00,,---,0.00,VWS V14.00,2013-03-26 04:48:00,
2013-03-25 21:53:00,71.5,18.1,29.85,SSE,157,5.0,6.0,13,0.00,,---,0.00,VWS V14.00,2013-03-26 04:53:00,
2013-03-25 21:58:00,71.4,18.0,29.85,SSE,157,4.0,5.0,13,0.00,,---,0.00,VWS V14.00,2013-03-26 04:58:00,
2013-03-25 22:03:00,71.3,19.7,29.85,SSE,157,3.0,5.0,14,0.00,,---,0.00,VWS V14.00,2013-03-26 05:03:00,
2013-03-25 22:08:00,71.3,19.7,29.85,SSE,157,3.0,4.0,14,0.00,,---,0.00,VWS V14.00,2013-03-26 05:08:00,
2013-03-25 22:13:00,71.4,19.8,29.85,SSE,157,2.0,4.0,14,0.00,,---,0.00,VWS V14.00,2013-03-26 05:13:00,
2013-03-25 22:18:00,71.4,19.8,29.86,SSE,157,2.0,4.0,14,0.00,,---,0.00,VWS V14.00,2013-03-26 05:18:00,
2013-03-25 22:23:00,71.4,19.8,29.86,SSE,157,2.0,4.0,14,0.00,,---,0.00,VWS V14.00,2013-03-26 05:23:00,
2013-03-25 22:28:00,71.5,18.1,29.86,SSE,157,2.0,11.0,13,0.00,,---,0.00,VWS V14.00,2013-03-26 05:28:00,
2013-03-25 22:33:00,71.7,18.3,29.86,SSE,157,4.0,7.0,13,0.00,,---,0.00,VWS V14.00,2013-03-26 05:33:00,
2013-03-25 22:38:00,71.5,19.8,29.86,SSE,157,4.0,6.0,14,0.00,,---,0.00,VWS V14.00,2013-03-26 05:38:00,
2013-03-25 22:43:00,71.3,19.7,29.86,SSE,157,3.0,5.0,14,0.00,,---,0.00,VWS V14.00,2013-03-26 05:43:00,
2013-03-25 22:48:00,70.9,19.4,29.86,SSE,157,4.0,6.0,14,0.00,,---,0.00,VWS V14.00,2013-03-26 05:48:00,
2013-03-25 22:53:00,70.6,19.1,29.86,SSE,157,2.0,4.0,14,0.00,,---,0.00,VWS V14.00,2013-03-26 05:53:00,
2013-03-25 22:58:00,70.1,18.7,29.86,SSE,157,4.0,5.0,14,0.00,,---,0.00,VWS V14.00,2013-03-26 05:58:00,
2013-03-25 23:03:00,69.9,18.6,29.86,SSE,157,2.0,6.0,14,0.00,,---,0.00,VWS V14.00,2013-03-26 06:03:00,
2013-03-25 23:08:00,70.0,18.6,29.86,SSE,157,4.0,5.0,14,0.00,,---,0.00,VWS V14.00,2013-03-26 06:08:00,
2013-03-25 23:13:00,70.3,20.5,29.86,SSE,157,3.0,6.0,15,0.00,,---,0.00,VWS V14.00,2013-03-26 06:13:00,
2013-03-25 23:18:00,70.7,26.5,29.86,SSE,165,11.0,12.0,19,0.00,,---,0.00,VWS V14.00,2013-03-26 06:18:00,
2013-03-25 23:23:00,71.3,34.7,29.86,WSW,244,11.0,13.0,26,0.00,,---,0.00,VWS V14.00,2013-03-26 06:23:00,
2013-03-25 23:28:00,71.6,36.8,29.86,WSW,251,7.0,12.0,28,0.00,,---,0.00,VWS V14.00,2013-03-26 06:28:00,
2013-03-25 23:33:00,71.6,37.7,29.85,WNW,283,17.0,17.0,29,0.00,,---,0.00,VWS V14.00,2013-03-26 06:33:00,
2013-03-25 23:38:00,71.5,37.6,29.86,WNW,298,11.0,19.0,29,0.00,,---,0.00,VWS V14.00,2013-03-26 06:38:00,
2013-03-25 23:43:00,71.7,36.9,29.86,WNW,298,2.0,7.0,28,0.00,,---,0.00,VWS V14.00,2013-03-26 06:43:00,
2013-03-25 23:48:00,71.6,38.6,29.85,WNW,301,6.0,10.0,30,0.00,,---,0.00,VWS V14.00,2013-03-26 06:48:00,
2013-03-25 23:53:00,71.7,39.5,29.85,NW,309,14.0,16.0,31,0.00,,---,0.00,VWS V14.00,2013-03-26 06:53:00,
2013-03-25 23:58:00,71.8,39.6,29.85,NW,319,13.0,21.0,31,0.00,,---,0.00,VWS V14.00,2013-03-26 06:58:00,